Tracking 29777 objects as of 4-Oct-2024
HD Live streaming from Space Station
objects crossing your sky now

STARLINK-6191

Track STARLINK-6191 now!
10-day predictions
STARLINK-6191 is classified as:


NORAD ID: 56378
Int'l Code: 2023-061E
Perigee: 565.3 km
Apogee: 567.1 km
Inclination: 43.0 °
Period: 95.8 minutes
Semi major axis: 6937 km
RCS: Unknown
Launch date: May 4, 2023
Source: United States (US)
Launch site: AIR FORCE EASTERN TEST RANGE (AFETR)
Your satellite tracking list
Your tracking list is empty




NASA's NSSDC Master Catalog

Two Line Element Set (TLE):
1 56378U 23061E   24278.36112027  .00001367  00000-0  11624-3 0  9990
2 56378  43.0036 150.1884 0001266 274.3155  85.7543 15.02542415 78338
Source of the keplerian elements: AFSPC